Year,Month,Day,Hour,Minute,Value (Times are PST for temperature in C)
2020,04,23,00,00,8.80
2020,04,23,00,01,8.80
2020,04,23,00,02,8.80
2020,04,23,00,03,8.70
2020,04,23,00,04,8.70
2020,04,23,00,05,8.70
2020,04,23,00,06,8.70
2020,04,23,00,07,8.70
2020,04,23,00,08,8.70
2020,04,23,00,09,8.70
2020,04,23,00,10,8.70
2020,04,23,00,11,8.70
2020,04,23,00,12,8.70
2020,04,23,00,13,8.70
2020,04,23,00,14,8.70
2020,04,23,00,15,8.70
2020,04,23,00,16,8.70
2020,04,23,00,17,8.60
2020,04,23,00,18,8.60
2020,04,23,00,19,8.60
2020,04,23,00,20,8.60
2020,04,23,00,21,8.60
2020,04,23,00,22,8.60
2020,04,23,00,23,8.50
2020,04,23,00,24,8.50
2020,04,23,00,25,8.50
2020,04,23,00,26,8.40
2020,04,23,00,27,8.40
2020,04,23,00,28,8.40
2020,04,23,00,29,8.40
2020,04,23,00,30,8.40
2020,04,23,00,31,8.40
2020,04,23,00,32,8.30
2020,04,23,00,33,8.30
2020,04,23,00,34,8.30
2020,04,23,00,35,8.30
2020,04,23,00,36,8.30
2020,04,23,00,37,8.30
2020,04,23,00,38,8.30
2020,04,23,00,39,8.30
2020,04,23,00,40,8.30
2020,04,23,00,41,8.30
2020,04,23,00,42,8.30
2020,04,23,00,43,8.30
2020,04,23,00,44,8.30
2020,04,23,00,45,8.30
2020,04,23,00,46,8.30
2020,04,23,00,47,8.30
2020,04,23,00,48,8.30
2020,04,23,00,49,8.30
2020,04,23,00,50,8.30
2020,04,23,00,51,8.30
2020,04,23,00,52,8.30
2020,04,23,00,53,8.30
2020,04,23,00,54,8.30
2020,04,23,00,55,8.30
2020,04,23,00,56,8.30
2020,04,23,00,57,8.20
2020,04,23,00,58,8.20
2020,04,23,00,59,8.20
2020,04,23,01,00,8.20
2020,04,23,01,01,8.20
2020,04,23,01,02,8.20
2020,04,23,01,03,8.20
2020,04,23,01,04,8.20
2020,04,23,01,05,8.20
2020,04,23,01,06,8.20
2020,04,23,01,07,8.20
2020,04,23,01,08,8.20
2020,04,23,01,09,8.20
2020,04,23,01,10,8.20
2020,04,23,01,11,8.20
2020,04,23,01,12,8.10
2020,04,23,01,13,8.10
2020,04,23,01,14,8.10
2020,04,23,01,15,8.10
2020,04,23,01,16,8.10
2020,04,23,01,17,8.10
2020,04,23,01,18,8.00
2020,04,23,01,19,8.00
2020,04,23,01,20,8.00
2020,04,23,01,21,8.00
2020,04,23,01,22,8.00
2020,04,23,01,23,8.00
2020,04,23,01,24,8.00
2020,04,23,01,25,8.00
2020,04,23,01,26,8.00
2020,04,23,01,27,8.00
2020,04,23,01,28,8.00
2020,04,23,01,29,8.00
2020,04,23,01,30,8.00
2020,04,23,01,31,8.00
2020,04,23,01,32,7.90
2020,04,23,01,33,7.90
2020,04,23,01,34,7.90
2020,04,23,01,35,7.90
2020,04,23,01,36,7.90
2020,04,23,01,37,7.90
2020,04,23,01,38,7.90
2020,04,23,01,39,8.00
2020,04,23,01,40,8.00
2020,04,23,01,41,8.00
2020,04,23,01,42,8.00
2020,04,23,01,43,8.00
2020,04,23,01,44,8.00
2020,04,23,01,45,8.00
2020,04,23,01,46,8.10
2020,04,23,01,47,8.10
2020,04,23,01,48,8.10
2020,04,23,01,49,8.00
2020,04,23,01,50,8.10
2020,04,23,01,51,8.00
2020,04,23,01,52,8.00
2020,04,23,01,53,8.00
2020,04,23,01,54,8.00
2020,04,23,01,55,8.00
2020,04,23,01,56,8.00
2020,04,23,01,57,8.00
2020,04,23,01,58,8.00
2020,04,23,01,59,8.00
2020,04,23,02,00,8.00
2020,04,23,02,01,8.00
2020,04,23,02,02,8.00
2020,04,23,02,03,8.00
2020,04,23,02,04,8.00
2020,04,23,02,05,8.00
2020,04,23,02,06,8.00
2020,04,23,02,07,8.00
2020,04,23,02,08,8.00
2020,04,23,02,09,8.00
2020,04,23,02,10,8.00
2020,04,23,02,11,7.90
2020,04,23,02,12,7.90
2020,04,23,02,13,7.90
2020,04,23,02,14,7.90
2020,04,23,02,15,7.90
2020,04,23,02,16,7.90
2020,04,23,02,17,7.90
2020,04,23,02,18,7.90
2020,04,23,02,19,7.90
2020,04,23,02,20,7.90
2020,04,23,02,21,7.90
2020,04,23,02,22,7.90
2020,04,23,02,23,7.90
2020,04,23,02,24,7.90
2020,04,23,02,25,7.90
2020,04,23,02,26,7.90
2020,04,23,02,27,7.90
2020,04,23,02,28,7.90
2020,04,23,02,29,7.90
2020,04,23,02,30,7.90
2020,04,23,02,31,7.90
2020,04,23,02,32,7.90
2020,04,23,02,33,7.90
2020,04,23,02,34,7.90
2020,04,23,02,35,7.90
2020,04,23,02,36,7.90
2020,04,23,02,37,7.90
2020,04,23,02,38,7.90
2020,04,23,02,39,7.90
2020,04,23,02,40,7.90
2020,04,23,02,41,7.90
2020,04,23,02,42,7.90
2020,04,23,02,43,7.90
2020,04,23,02,44,7.90
2020,04,23,02,45,7.90
2020,04,23,02,46,7.90
2020,04,23,02,47,7.90
2020,04,23,02,48,7.90
2020,04,23,02,49,7.90
2020,04,23,02,50,7.90
2020,04,23,02,51,7.90
2020,04,23,02,52,7.90
2020,04,23,02,53,7.90
2020,04,23,02,54,7.90
2020,04,23,02,55,7.90
2020,04,23,02,56,7.90
2020,04,23,02,57,7.90
2020,04,23,02,58,7.90
2020,04,23,02,59,7.90
2020,04,23,03,00,7.90
2020,04,23,03,01,7.90
2020,04,23,03,02,7.90
2020,04,23,03,03,7.90
2020,04,23,03,04,7.90
2020,04,23,03,05,7.90
2020,04,23,03,06,7.90
2020,04,23,03,07,7.90
2020,04,23,03,08,7.90
2020,04,23,03,09,7.90
2020,04,23,03,10,7.90
2020,04,23,03,11,7.90
2020,04,23,03,12,7.90
2020,04,23,03,13,7.90
2020,04,23,03,14,7.90
2020,04,23,03,15,7.90
2020,04,23,03,16,7.90
2020,04,23,03,17,7.90
2020,04,23,03,18,7.90
2020,04,23,03,19,8.00
2020,04,23,03,20,8.00
2020,04,23,03,21,8.00
2020,04,23,03,22,8.00
2020,04,23,03,23,8.00
2020,04,23,03,24,8.00
2020,04,23,03,25,8.00
2020,04,23,03,26,7.90
2020,04,23,03,27,8.00
2020,04,23,03,28,8.00
2020,04,23,03,29,8.00
2020,04,23,03,30,8.00
2020,04,23,03,31,8.00
2020,04,23,03,32,7.90
2020,04,23,03,33,8.00
2020,04,23,03,34,8.00
2020,04,23,03,35,8.00
2020,04,23,03,36,8.00
2020,04,23,03,37,8.00
2020,04,23,03,38,8.00
2020,04,23,03,39,8.00
2020,04,23,03,40,8.00
2020,04,23,03,41,8.00
2020,04,23,03,42,8.00
2020,04,23,03,43,8.00
2020,04,23,03,44,8.00
2020,04,23,03,45,8.00
2020,04,23,03,46,8.00
2020,04,23,03,47,8.00
2020,04,23,03,48,8.00
2020,04,23,03,49,8.10
2020,04,23,03,50,8.10
2020,04,23,03,51,8.00
2020,04,23,03,52,8.00
2020,04,23,03,53,8.00
2020,04,23,03,54,8.00
2020,04,23,03,55,8.00
2020,04,23,03,56,8.00
2020,04,23,03,57,8.00
2020,04,23,03,58,8.00
2020,04,23,03,59,8.10
2020,04,23,04,00,8.10
2020,04,23,04,01,8.10
2020,04,23,04,02,8.10
2020,04,23,04,03,8.10
2020,04,23,04,04,8.10
2020,04,23,04,05,8.10
2020,04,23,04,06,8.10
2020,04,23,04,07,8.10
2020,04,23,04,08,8.10
2020,04,23,04,09,8.10
2020,04,23,05,04,8.20
2020,04,23,05,05,8.20
2020,04,23,05,06,8.20
2020,04,23,05,07,8.20
2020,04,23,05,08,8.20
2020,04,23,05,09,8.20
2020,04,23,05,10,8.20
2020,04,23,05,11,8.20
2020,04,23,05,12,8.20
2020,04,23,05,13,8.20
2020,04,23,05,14,8.10
2020,04,23,05,15,8.10
2020,04,23,05,16,8.10
2020,04,23,05,17,8.10
2020,04,23,05,18,8.10
2020,04,23,05,19,8.10
2020,04,23,05,20,8.10
2020,04,23,05,21,8.10
2020,04,23,05,22,8.10
2020,04,23,05,23,8.10
2020,04,23,05,24,8.10
2020,04,23,05,25,8.10
2020,04,23,05,26,8.10
2020,04,23,05,27,8.10
2020,04,23,05,28,8.10
2020,04,23,05,29,8.10
2020,04,23,05,30,8.10
2020,04,23,05,31,8.10
2020,04,23,05,32,8.10
2020,04,23,05,33,8.10
2020,04,23,05,34,8.10
2020,04,23,05,35,8.10
2020,04,23,05,36,8.10
2020,04,23,05,37,8.10
2020,04,23,05,38,8.10
2020,04,23,05,39,8.10
2020,04,23,05,40,8.10
2020,04,23,05,41,8.10
2020,04,23,05,42,8.10
2020,04,23,05,43,8.10
2020,04,23,05,44,8.10
2020,04,23,05,45,8.10
2020,04,23,05,46,8.10
2020,04,23,05,47,8.10
2020,04,23,05,48,8.10
2020,04,23,05,49,8.10
2020,04,23,05,50,8.10
2020,04,23,05,51,8.10
2020,04,23,05,52,8.10
2020,04,23,05,53,8.10
2020,04,23,05,54,8.10
2020,04,23,05,55,8.10
2020,04,23,05,56,8.10
2020,04,23,05,57,8.10
2020,04,23,05,58,8.10
2020,04,23,05,59,8.20
2020,04,23,06,00,8.20
2020,04,23,06,01,8.20
2020,04,23,06,02,8.20
2020,04,23,06,03,8.20
2020,04,23,06,04,8.20
2020,04,23,06,05,8.20
2020,04,23,06,06,8.10
2020,04,23,06,07,8.10
2020,04,23,06,08,8.10
2020,04,23,06,09,8.10
2020,04,23,06,10,8.10
2020,04,23,06,11,8.10
2020,04,23,06,12,8.10
2020,04,23,06,13,8.10
2020,04,23,06,14,8.10
2020,04,23,06,15,8.10
2020,04,23,06,16,8.10
2020,04,23,06,17,8.10
2020,04,23,06,18,8.10
2020,04,23,06,19,8.10
2020,04,23,06,20,8.10
2020,04,23,06,21,8.10
2020,04,23,06,22,8.10
2020,04,23,06,23,8.10
2020,04,23,06,24,8.10
2020,04,23,06,25,8.10
2020,04,23,06,26,8.10
2020,04,23,06,27,8.10
2020,04,23,06,28,8.10
2020,04,23,06,29,8.10
2020,04,23,06,30,8.10
2020,04,23,06,31,8.10
2020,04,23,06,32,8.10
2020,04,23,06,33,8.20
2020,04,23,06,34,8.20
2020,04,23,06,35,8.20
2020,04,23,06,36,8.20
2020,04,23,06,37,8.20
2020,04,23,06,38,8.20
2020,04,23,06,39,8.20
2020,04,23,06,40,8.20
2020,04,23,06,41,8.20
2020,04,23,06,42,8.20
2020,04,23,06,43,8.20
2020,04,23,06,44,8.20
2020,04,23,06,45,8.20
2020,04,23,06,46,8.20
2020,04,23,06,47,8.20
2020,04,23,06,48,8.30
2020,04,23,06,49,8.30
2020,04,23,06,50,8.30
2020,04,23,06,51,8.30
2020,04,23,06,52,8.30
2020,04,23,06,53,8.40
2020,04,23,06,54,8.40
2020,04,23,06,55,8.40
2020,04,23,06,56,8.50
2020,04,23,06,57,8.50
2020,04,23,06,58,8.50
2020,04,23,06,59,8.60
2020,04,23,07,00,8.60
2020,04,23,07,01,8.60
2020,04,23,07,02,8.70
2020,04,23,07,03,8.70
2020,04,23,07,04,8.70
2020,04,23,07,05,8.80
2020,04,23,07,06,8.80
2020,04,23,07,07,8.80
2020,04,23,07,08,8.80
2020,04,23,07,09,8.80
2020,04,23,07,10,8.90
2020,04,23,07,11,8.90
2020,04,23,07,12,8.90
2020,04,23,07,13,8.90
2020,04,23,07,14,8.90
2020,04,23,07,15,9.00
2020,04,23,07,16,9.00
2020,04,23,07,17,9.00
2020,04,23,07,18,9.00
2020,04,23,07,19,9.00
2020,04,23,07,20,9.00
2020,04,23,07,21,9.10
2020,04,23,07,22,9.10
2020,04,23,07,23,9.10
2020,04,23,07,24,9.10
2020,04,23,07,25,9.10
2020,04,23,07,26,9.10
2020,04,23,07,27,9.10
2020,04,23,07,28,9.10
2020,04,23,07,29,9.10
2020,04,23,07,30,9.20
2020,04,23,07,31,9.20
2020,04,23,07,32,9.20
2020,04,23,07,33,9.20
2020,04,23,07,34,9.20
2020,04,23,07,35,9.20
2020,04,23,07,36,9.20
2020,04,23,07,37,9.20
2020,04,23,07,38,9.20
2020,04,23,07,39,9.30
2020,04,23,07,40,9.30
2020,04,23,07,41,9.30
2020,04,23,07,42,9.30
2020,04,23,07,43,9.30
2020,04,23,07,44,9.30
2020,04,23,07,45,9.30
2020,04,23,07,46,9.40
2020,04,23,07,47,9.40
2020,04,23,07,48,9.40
2020,04,23,07,49,9.40
2020,04,23,07,50,9.40
2020,04,23,07,51,9.40
2020,04,23,07,52,9.50
2020,04,23,07,53,9.50
2020,04,23,07,54,9.50
2020,04,23,07,55,9.60
2020,04,23,07,56,9.60
2020,04,23,07,57,9.60
2020,04,23,07,58,9.60
2020,04,23,07,59,9.60
2020,04,23,08,00,9.60
2020,04,23,08,01,9.70
2020,04,23,08,02,9.70
2020,04,23,08,03,9.70
2020,04,23,08,04,9.70
2020,04,23,08,05,9.70
2020,04,23,08,06,9.80
2020,04,23,08,07,9.80
2020,04,23,08,08,9.80
2020,04,23,08,09,9.80
2020,04,23,08,10,9.80
2020,04,23,08,11,9.90
2020,04,23,08,12,9.90
2020,04,23,08,13,9.90
2020,04,23,08,14,9.90
2020,04,23,08,15,9.90
2020,04,23,08,16,9.90
2020,04,23,08,17,9.90
2020,04,23,08,18,9.90
2020,04,23,08,19,10.00
2020,04,23,08,20,10.00
2020,04,23,08,21,10.00
2020,04,23,08,22,10.00
2020,04,23,08,23,10.00
2020,04,23,08,24,10.10
2020,04,23,08,25,10.10
2020,04,23,08,26,10.10
2020,04,23,08,27,10.10
2020,04,23,08,28,10.10
2020,04,23,08,29,10.10
2020,04,23,08,30,10.10
2020,04,23,08,31,10.10
2020,04,23,08,32,10.10
2020,04,23,08,33,10.10
2020,04,23,08,34,10.20
2020,04,23,08,35,10.20
2020,04,23,08,36,10.20
2020,04,23,08,37,10.20
2020,04,23,08,38,10.20
2020,04,23,08,39,10.20
2020,04,23,08,40,10.20
2020,04,23,08,41,10.20
2020,04,23,08,42,10.20
2020,04,23,08,43,10.20
2020,04,23,08,44,10.30
2020,04,23,08,45,10.30
2020,04,23,08,46,10.30
2020,04,23,08,47,10.40
2020,04,23,08,48,10.40
2020,04,23,08,49,10.40
2020,04,23,08,50,10.40
2020,04,23,08,51,10.40
2020,04,23,08,52,10.40
2020,04,23,08,53,10.40
2020,04,23,08,54,10.50
2020,04,23,08,55,10.50
2020,04,23,08,56,10.50
2020,04,23,08,57,10.50
2020,04,23,08,58,10.50
2020,04,23,08,59,10.40
2020,04,23,09,00,10.40
2020,04,23,09,01,10.50
2020,04,23,09,02,10.50
2020,04,23,09,03,10.50
2020,04,23,09,04,10.50
2020,04,23,09,05,10.50
2020,04,23,09,06,10.50
2020,04,23,09,07,10.50
2020,04,23,09,08,10.50
2020,04,23,09,09,10.60
2020,04,23,09,10,10.60
2020,04,23,09,11,10.60
2020,04,23,09,12,10.60
2020,04,23,09,13,10.60
2020,04,23,09,14,10.70
2020,04,23,09,15,10.70
2020,04,23,09,16,10.70
2020,04,23,09,17,10.70
2020,04,23,09,18,10.70
2020,04,23,09,19,10.70
2020,04,23,09,20,10.70
2020,04,23,09,21,10.80
2020,04,23,09,22,10.80
2020,04,23,09,23,10.80
2020,04,23,09,24,10.80
2020,04,23,09,25,10.90
2020,04,23,09,26,10.90
2020,04,23,09,27,10.90
2020,04,23,09,28,10.90
2020,04,23,09,29,10.90
2020,04,23,09,30,10.90
2020,04,23,09,31,10.90
2020,04,23,09,32,10.90
2020,04,23,09,33,10.90
2020,04,23,09,34,10.90
2020,04,23,09,35,10.90
2020,04,23,09,36,11.00
2020,04,23,09,37,11.00
2020,04,23,09,38,11.00
2020,04,23,09,39,11.00
2020,04,23,09,40,11.00
2020,04,23,09,41,11.00
2020,04,23,09,42,11.00
2020,04,23,09,43,11.00
2020,04,23,09,44,11.00
2020,04,23,09,45,11.00
2020,04,23,09,46,11.00
2020,04,23,09,47,11.00
2020,04,23,09,48,11.10
2020,04,23,09,49,11.10
2020,04,23,09,50,11.10
2020,04,23,09,51,11.10
2020,04,23,09,52,11.20
2020,04,23,09,53,11.20
2020,04,23,09,54,11.20
2020,04,23,09,55,11.20
2020,04,23,09,56,11.20
2020,04,23,09,57,11.30
2020,04,23,09,58,11.30
2020,04,23,09,59,11.30
2020,04,23,10,00,11.30
2020,04,23,10,01,11.30
2020,04,23,10,02,11.40
2020,04,23,10,03,11.40
2020,04,23,10,04,11.50
2020,04,23,10,05,11.50
2020,04,23,10,06,11.60
2020,04,23,10,07,11.60
2020,04,23,10,08,11.60
2020,04,23,10,09,11.60
2020,04,23,10,10,11.70
2020,04,23,10,11,11.70
2020,04,23,10,12,11.70
2020,04,23,10,13,11.70
2020,04,23,10,14,11.70
2020,04,23,10,15,11.70
2020,04,23,10,16,11.70
2020,04,23,10,17,11.70
2020,04,23,10,18,11.70
2020,04,23,10,19,11.60
2020,04,23,10,20,11.60
2020,04,23,10,21,11.60
2020,04,23,10,22,11.60
2020,04,23,10,23,11.70
2020,04,23,10,24,11.70
2020,04,23,10,25,11.80
2020,04,23,10,26,11.90
2020,04,23,10,27,12.00
2020,04,23,10,28,12.10
2020,04,23,10,29,12.10
2020,04,23,10,30,12.10
2020,04,23,10,31,12.20
2020,04,23,10,32,12.20
2020,04,23,10,33,12.30
2020,04,23,10,34,12.30
2020,04,23,10,35,12.40
2020,04,23,10,36,12.40
2020,04,23,10,37,12.50
2020,04,23,10,38,12.50
2020,04,23,10,39,12.60
2020,04,23,10,40,12.70
2020,04,23,10,41,12.70
2020,04,23,10,42,12.70
2020,04,23,10,43,12.80
2020,04,23,10,44,12.80
2020,04,23,10,45,12.70
2020,04,23,10,46,12.70
2020,04,23,10,47,12.70
2020,04,23,10,48,12.60
2020,04,23,10,49,12.60
2020,04,23,10,50,12.60
2020,04,23,10,51,12.60
2020,04,23,10,52,12.60
2020,04,23,10,53,12.60
2020,04,23,10,54,12.50
2020,04,23,10,55,12.50
2020,04,23,10,56,12.50
2020,04,23,10,57,12.50
2020,04,23,10,58,12.60
2020,04,23,10,59,12.60
2020,04,23,11,00,12.60
2020,04,23,11,01,12.70
2020,04,23,11,02,12.70
2020,04,23,11,03,12.70
2020,04,23,11,04,12.70
2020,04,23,11,05,12.70
2020,04,23,11,06,12.70
2020,04,23,11,07,12.70
2020,04,23,11,08,12.70
2020,04,23,11,09,12.70
2020,04,23,11,10,12.70
2020,04,23,11,11,12.70
2020,04,23,11,12,12.70
2020,04,23,11,13,12.70
2020,04,23,11,14,12.70
2020,04,23,11,15,12.70
2020,04,23,11,16,12.60
2020,04,23,11,17,12.60
2020,04,23,11,18,12.60
2020,04,23,11,19,12.50
2020,04,23,11,20,12.50
2020,04,23,11,21,12.50
2020,04,23,11,22,12.60
2020,04,23,11,23,12.60
2020,04,23,11,24,12.60
2020,04,23,11,25,12.60
2020,04,23,11,26,12.60
2020,04,23,11,27,12.60
2020,04,23,11,28,12.60
2020,04,23,11,29,12.70
2020,04,23,11,30,12.70
2020,04,23,11,31,12.70
2020,04,23,11,32,12.80
2020,04,23,11,33,12.80
2020,04,23,11,34,12.80
2020,04,23,11,35,12.90
2020,04,23,11,36,13.00
2020,04,23,11,37,13.10
2020,04,23,11,38,13.10
2020,04,23,11,39,13.30
2020,04,23,11,40,13.40
2020,04,23,11,41,13.50
2020,04,23,11,42,13.60
2020,04,23,11,43,13.70
2020,04,23,11,44,13.70
2020,04,23,11,45,13.80
2020,04,23,11,46,13.70
2020,04,23,11,47,13.70
2020,04,23,11,48,13.70
2020,04,23,11,49,13.70
2020,04,23,11,50,13.80
2020,04,23,11,51,13.90
2020,04,23,11,52,13.90
2020,04,23,11,53,13.90
2020,04,23,11,54,13.90
2020,04,23,11,55,13.90
2020,04,23,11,56,13.90
2020,04,23,11,57,13.90
2020,04,23,11,58,14.00
2020,04,23,11,59,14.00
2020,04,23,12,00,14.10
2020,04,23,12,01,14.10
2020,04,23,12,02,14.20
2020,04,23,12,03,14.20
2020,04,23,12,04,14.20
2020,04,23,12,05,14.20
2020,04,23,12,06,14.20
2020,04,23,12,07,14.20
2020,04,23,12,08,14.20
2020,04,23,12,09,14.30
2020,04,23,12,10,14.30
2020,04,23,12,11,14.30
2020,04,23,12,12,14.30
2020,04,23,12,13,14.30
2020,04,23,12,14,14.30
2020,04,23,12,15,14.30
2020,04,23,12,16,14.40
2020,04,23,12,17,14.50
2020,04,23,12,18,14.60
2020,04,23,12,19,14.60
2020,04,23,12,20,14.60
2020,04,23,12,21,14.60
2020,04,23,12,22,14.60
2020,04,23,12,23,14.70
2020,04,23,12,24,14.70
2020,04,23,12,25,14.70
2020,04,23,12,26,14.70
2020,04,23,12,27,14.70
2020,04,23,12,28,14.80
2020,04,23,12,29,14.80
2020,04,23,12,30,14.80
2020,04,23,12,31,14.80
2020,04,23,12,32,14.90
2020,04,23,12,33,14.90
2020,04,23,12,34,15.00
2020,04,23,12,35,15.00
2020,04,23,12,36,15.10
2020,04,23,12,37,15.10
2020,04,23,12,38,15.20
2020,04,23,12,39,15.30
2020,04,23,12,40,15.30
2020,04,23,12,41,15.40
2020,04,23,12,42,15.50
2020,04,23,12,43,15.50
2020,04,23,12,44,15.50
2020,04,23,12,45,15.60
2020,04,23,12,46,15.60
2020,04,23,12,47,15.50
2020,04,23,12,48,15.60
2020,04,23,12,49,15.50
2020,04,23,12,50,15.50
2020,04,23,12,51,15.60
2020,04,23,12,52,15.60
2020,04,23,12,53,15.60
2020,04,23,12,54,15.60
2020,04,23,12,55,15.70
2020,04,23,12,56,15.70
2020,04,23,12,57,15.80
2020,04,23,12,58,15.80
2020,04,23,12,59,15.80
2020,04,23,13,00,15.80
2020,04,23,13,01,15.80
2020,04,23,13,02,15.80
2020,04,23,13,03,15.70
2020,04,23,13,04,15.70
2020,04,23,13,05,15.70
2020,04,23,13,06,15.80
2020,04,23,13,07,15.80
2020,04,23,13,08,15.80
2020,04,23,13,09,15.80
2020,04,23,13,10,15.80
2020,04,23,13,11,15.80
2020,04,23,13,12,15.90
2020,04,23,13,13,15.90
2020,04,23,13,14,15.90
2020,04,23,13,15,16.00
2020,04,23,13,16,16.00
2020,04,23,13,17,15.90
2020,04,23,13,18,15.90
2020,04,23,13,19,15.90
2020,04,23,13,20,15.80
2020,04,23,13,21,15.80
2020,04,23,13,22,15.80
2020,04,23,13,23,15.90
2020,04,23,13,24,15.90
2020,04,23,13,25,15.90
2020,04,23,13,26,15.90
2020,04,23,13,27,15.90
2020,04,23,13,28,16.00
2020,04,23,13,29,16.00
2020,04,23,13,30,16.10
2020,04,23,13,31,16.20
2020,04,23,13,32,16.20
2020,04,23,13,33,16.30
2020,04,23,13,34,16.40
2020,04,23,13,35,16.40
2020,04,23,13,36,16.50
2020,04,23,13,37,16.50
2020,04,23,13,38,16.50
2020,04,23,13,39,16.40
2020,04,23,13,40,16.40
2020,04,23,13,41,16.30
2020,04,23,13,42,16.40
2020,04,23,13,43,16.40
2020,04,23,13,44,16.40
2020,04,23,13,45,16.50
2020,04,23,13,46,16.60
2020,04,23,13,47,16.70
2020,04,23,13,48,16.80
2020,04,23,13,49,16.80
2020,04,23,13,50,16.70
2020,04,23,13,51,16.70
2020,04,23,13,52,16.70
2020,04,23,13,53,16.70
2020,04,23,13,54,16.70
2020,04,23,13,55,16.80
2020,04,23,13,56,16.80
2020,04,23,13,57,16.80
2020,04,23,13,58,16.90
2020,04,23,13,59,16.90
2020,04,23,14,00,17.00
2020,04,23,14,01,17.10
2020,04,23,14,02,17.10
2020,04,23,14,03,17.10
2020,04,23,14,04,17.20
2020,04,23,14,05,17.30
2020,04,23,14,06,17.40
2020,04,23,14,07,17.40
2020,04,23,14,08,17.30
2020,04,23,14,09,17.20
2020,04,23,14,10,17.30
2020,04,23,14,11,17.20
2020,04,23,14,12,17.20
2020,04,23,14,13,17.20
2020,04,23,14,14,17.20
2020,04,23,14,15,17.30
2020,04,23,14,16,17.30
2020,04,23,14,17,17.20
2020,04,23,14,18,17.20
2020,04,23,14,19,17.20
2020,04,23,14,20,17.30
2020,04,23,14,21,17.30
2020,04,23,14,22,17.30
2020,04,23,14,23,17.40
2020,04,23,14,24,17.40
2020,04,23,14,25,17.50
2020,04,23,14,26,17.30
2020,04,23,14,27,17.20
2020,04,23,14,28,17.10
2020,04,23,14,29,17.00
2020,04,23,14,30,16.80
2020,04,23,14,31,16.70
2020,04,23,14,32,16.70
2020,04,23,14,33,16.60
2020,04,23,14,34,16.60
2020,04,23,14,35,16.50
2020,04,23,14,36,16.40
2020,04,23,14,37,16.40
2020,04,23,14,38,16.40
2020,04,23,14,39,16.50
2020,04,23,14,40,16.50
2020,04,23,14,41,16.50
2020,04,23,14,42,16.50
2020,04,23,14,43,16.60
2020,04,23,14,44,16.60
2020,04,23,14,45,16.60
2020,04,23,14,46,16.60
2020,04,23,14,47,16.70
2020,04,23,14,48,16.70
2020,04,23,14,49,16.70
2020,04,23,14,50,16.80
2020,04,23,14,51,16.90
2020,04,23,14,52,16.90
2020,04,23,14,53,16.80
2020,04,23,14,54,16.80
2020,04,23,14,55,16.70
2020,04,23,14,56,16.70
2020,04,23,14,57,16.80
2020,04,23,14,58,16.80
2020,04,23,14,59,16.90
2020,04,23,15,00,17.00
2020,04,23,15,01,17.00
2020,04,23,15,02,16.90
2020,04,23,15,03,16.90
2020,04,23,15,04,16.80
2020,04,23,15,05,16.80
2020,04,23,15,06,16.80
2020,04,23,15,07,16.70
2020,04,23,15,08,16.70
2020,04,23,15,09,16.70
2020,04,23,15,10,16.70
2020,04,23,15,11,16.60
2020,04,23,15,12,16.60
2020,04,23,15,13,16.50
2020,04,23,15,14,16.40
2020,04,23,15,15,16.50
2020,04,23,15,16,16.50
2020,04,23,15,17,16.60
2020,04,23,15,18,16.60
2020,04,23,15,19,16.60
2020,04,23,15,20,16.60
2020,04,23,15,21,16.70
2020,04,23,15,22,16.70
2020,04,23,15,23,16.60
2020,04,23,15,24,16.60
2020,04,23,15,25,16.60
2020,04,23,15,26,16.60
2020,04,23,15,27,16.50
2020,04,23,15,28,16.50
2020,04,23,15,29,16.50
2020,04,23,15,30,16.60
2020,04,23,15,31,16.60
2020,04,23,15,32,16.60
2020,04,23,15,33,16.70
2020,04,23,15,34,16.80
2020,04,23,15,35,16.90
2020,04,23,15,36,17.00
2020,04,23,15,37,17.00
2020,04,23,15,38,17.00
2020,04,23,15,39,16.90
2020,04,23,15,40,16.80
2020,04,23,15,41,16.70
2020,04,23,15,42,16.70
2020,04,23,15,43,16.70
2020,04,23,15,44,16.70
2020,04,23,15,45,16.60
2020,04,23,15,46,16.60
2020,04,23,15,47,16.60
2020,04,23,15,48,16.60
2020,04,23,15,49,16.50
2020,04,23,15,50,16.50
2020,04,23,15,51,16.40
2020,04,23,15,52,16.30
2020,04,23,15,53,16.30
2020,04,23,15,54,16.40
2020,04,23,15,55,16.40
2020,04,23,15,56,16.50
2020,04,23,15,57,16.40
2020,04,23,15,58,16.40
2020,04,23,15,59,16.40
2020,04,23,16,00,16.40
2020,04,23,16,01,16.30
2020,04,23,16,02,16.30
2020,04,23,16,03,16.20
2020,04,23,16,04,16.20
2020,04,23,16,05,16.20
2020,04,23,16,06,16.30
2020,04,23,16,07,16.30
2020,04,23,16,08,16.40
2020,04,23,16,09,16.40
2020,04,23,17,04,16.50
2020,04,23,17,05,16.50
2020,04,23,17,06,16.50
2020,04,23,17,07,16.60
2020,04,23,17,08,16.60
2020,04,23,17,09,16.60
2020,04,23,17,10,16.70
2020,04,23,17,11,16.70
2020,04,23,17,12,16.70
2020,04,23,17,13,16.80
2020,04,23,17,14,16.80
2020,04,23,17,15,16.80
2020,04,23,17,16,16.80
2020,04,23,17,17,16.70
2020,04,23,17,18,16.70
2020,04,23,17,19,16.60
2020,04,23,17,20,16.50
2020,04,23,17,21,16.50
2020,04,23,17,22,16.50
2020,04,23,17,23,16.60
2020,04,23,17,24,16.60
2020,04,23,17,25,16.70
2020,04,23,17,26,16.70
2020,04,23,17,27,16.70
2020,04,23,17,28,16.70
2020,04,23,17,29,16.70
2020,04,23,17,30,16.70
2020,04,23,17,31,16.60
2020,04,23,17,32,16.50
2020,04,23,17,33,16.50
2020,04,23,17,34,16.40
2020,04,23,17,35,16.40
2020,04,23,17,36,16.30
2020,04,23,17,37,16.20
2020,04,23,17,38,16.00
2020,04,23,17,39,16.00
2020,04,23,17,40,15.90
2020,04,23,17,41,15.90
2020,04,23,17,42,15.90
2020,04,23,17,43,15.90
2020,04,23,17,44,15.90
2020,04,23,17,45,15.80
2020,04,23,17,46,15.80
2020,04,23,17,47,15.70
2020,04,23,17,48,15.70
2020,04,23,17,49,15.80
2020,04,23,17,50,15.80
2020,04,23,17,51,15.80
2020,04,23,17,52,15.90
2020,04,23,17,53,15.80
2020,04,23,17,54,15.80
2020,04,23,17,55,15.70
2020,04,23,17,56,15.70
2020,04,23,17,57,15.70
2020,04,23,17,58,15.70
2020,04,23,17,59,15.60
2020,04,23,18,00,15.60
2020,04,23,18,01,15.60
2020,04,23,18,02,15.60
2020,04,23,18,03,15.60
2020,04,23,18,04,15.60
2020,04,23,18,05,15.50
2020,04,23,18,06,15.40
2020,04,23,18,07,15.40
2020,04,23,18,08,15.40
2020,04,23,18,09,15.40
2020,04,23,18,10,15.40
2020,04,23,18,11,15.40
2020,04,23,18,12,15.40
2020,04,23,18,13,15.40
2020,04,23,18,14,15.40
2020,04,23,18,15,15.50
2020,04,23,18,16,15.50
2020,04,23,18,17,15.60
2020,04,23,18,18,15.60
2020,04,23,18,19,15.60
2020,04,23,18,20,15.60
2020,04,23,18,21,15.50
2020,04,23,18,22,15.50
2020,04,23,18,23,15.50
2020,04,23,18,24,15.50
2020,04,23,18,25,15.40
2020,04,23,18,26,15.40
2020,04,23,18,27,15.30
2020,04,23,18,28,15.30
2020,04,23,18,29,15.20
2020,04,23,18,30,15.20
2020,04,23,18,31,15.20
2020,04,23,18,32,15.30
2020,04,23,18,33,15.30
2020,04,23,18,34,15.30
2020,04,23,18,35,15.30
2020,04,23,18,36,15.30
2020,04,23,18,37,15.20
2020,04,23,18,38,15.20
2020,04,23,18,39,15.20
2020,04,23,18,40,15.30
2020,04,23,18,41,15.30
2020,04,23,18,42,15.30
2020,04,23,18,43,15.30
2020,04,23,18,44,15.30
2020,04,23,18,45,15.30
2020,04,23,18,46,15.30
2020,04,23,18,47,15.20
2020,04,23,18,48,15.20
2020,04,23,18,49,15.10
2020,04,23,18,50,15.10
2020,04,23,18,51,15.00
2020,04,23,18,52,15.00
2020,04,23,18,53,14.90
2020,04,23,18,54,14.90
2020,04,23,18,55,14.80
2020,04,23,18,56,14.80
2020,04,23,18,57,14.70
2020,04,23,18,58,14.70
2020,04,23,18,59,14.70
2020,04,23,19,00,14.70
2020,04,23,19,01,14.60
2020,04,23,19,02,14.60
2020,04,23,19,03,14.50
2020,04,23,19,04,14.50
2020,04,23,19,05,14.40
2020,04,23,19,06,14.30
2020,04,23,19,07,14.30
2020,04,23,19,08,14.20
2020,04,23,19,09,14.20
2020,04,23,19,10,14.20
2020,04,23,19,11,14.10
2020,04,23,19,12,14.10
2020,04,23,19,13,14.00
2020,04,23,19,14,14.00
2020,04,23,19,15,13.90
2020,04,23,19,16,13.90
2020,04,23,19,17,13.80
2020,04,23,19,18,13.80
2020,04,23,19,19,13.70
2020,04,23,19,20,13.70
2020,04,23,19,21,13.70
2020,04,23,19,22,13.70
2020,04,23,19,23,13.60
2020,04,23,19,24,13.60
2020,04,23,19,25,13.60
2020,04,23,19,26,13.60